Regional Weather Roundup
Issued by NWS

Home | Current Version | Previous Version | Text Only | Print | Product List | Glossary On
Versions: 1 2 3 4 5 6 7 8 9 10 11 12 13 14 15 16 17 18 19 20 21 22 23 24 25 26 27
000
ASUS45 KCYS 230410
RWRWY

WYOMING REGIONAL WEATHER ROUNDUP
NATIONAL WEATHER SERVICE CHEYENNE WY
900 PM MST SUN JAN 22 2017

NOTE:  "FAIR" INDICATES FEW OR NO CLOUDS BELOW 12,000 FEET
WITH NO SIGNIFICANT WEATHER AND/OR OBSTRUCTIONS TO VISIBILITY.

WYZ001-230500-
YELLOWSTONE NATIONAL PARK

CITY           SKY/WX    TMP DP  RH WIND       PRES   REMARKS
LK YELLOWSTONE   N/A     18  17  96 CALM      29.67F
W YELLOWSTONE  NOT AVBL

$$
WYZ002>013-054>058-071-098>099-230500-
NORTHERN WYOMING

CITY           SKY/WX    TMP DP  RH WIND       PRES   REMARKS
JACKSON        CLOUDY    21  21 100 SW12      29.71F WCI   9
CODY           FAIR      21  15  78 S3        29.67F
GREYBULL       FAIR      12   8  84 NW5       29.72S WCI   4
WORLAND        FAIR      18  15  88 NE3       29.71F
SHERIDAN       FAIR      21  16  81 SW9       29.70F WCI  11
BUFFALO        FAIR      26  15  63 NW10      29.68F WCI  16
GILLETTE       FAIR      29  19  66 S12       29.71F WCI  19
HULETT         FAIR      27  18  69 NW5       29.76F WCI  21
NEWCASTLE      FAIR      27  16  63 E5        29.80F WCI  21

$$
WYZ014>020-022>026-101>103-230500-
CENTRAL WYOMING

CITY           SKY/WX    TMP DP  RH WIND       PRES   REMARKS
BIG PINEY      LGT SNOW  16  13  88 NW5       29.76F VSB 3/4 WCI   9
PINEDALE       LGT SNOW  18  18 100 CALM      29.76F
DUBOIS         NOT AVBL
LANDER         CLOUDY    19  14  81 SE3       29.71R
RIVERTON       CLOUDY    18  12  77 NW9       29.72F WCI   7
CASPER         FAIR      32  17  54 SW25G36   29.72F WCI  19
DOUGLAS        MOCLDY    36  14  40 S12G21    29.76F WCI  28

$$
WYZ021-027>030-104>119-230500-
SOUTHERN WYOMING

CITY           SKY/WX    TMP DP  RH WIND       PRES   REMARKS
EVANSTON       LGT SNOW  20  16  84 E10       29.71F FOG     WCI   9
ROCK SPRINGS   CLOUDY    26  19  74 S17       29.74F WCI  13
RAWLINS        CLOUDY    27  18  69 SW15      29.78F WCI  15
LARAMIE        MOCLDY    22  11  62 SE10      29.77F WCI  11
CHEYENNE       FAIR      26  11  52 S5        29.81F WCI  20
TORRINGTON     FAIR      26  15  63 SE6       29.81F WCI  19

$$




USA.gov is the U.S. government's official web portal to all federal, state and local government web resources and services.